"2010-06-29 00:00:00",242380,4.423,40.3,2.749,0.284,21.66,110.2871,25.63,26.45,19.61,0,111.4,13.08,26.47,2.3
"2010-06-29 00:00:30",242381,4.398,42.58,3.472,0.261,21.68,110.2928,25.65,26.48,19.65,0,111.4,13.08,26.49,4.6
"2010-06-29 00:01:00",242382,3.854,41.33,2.69,0.241,21.7,110.2939,25.65,26.48,19.64,0,111.4,13.08,26.49,3.3
"2010-06-29 00:01:30",242383,3.563,37.24,2.562,0.318,21.68,110.2908,25.64,26.48,19.59,0,111.4,13.08,26.48,359.2
"2010-06-29 00:02:00",242384,5.393,39.84,3.413,1,21.78,110.2907,25.64,26.47,20.2,0,111.4,13.08,26.48,1.8
"2010-06-29 00:02:30",242385,7.018,42.59,1.582,0.231,21.88,110.2946,25.65,26.5,20.45,0,111.4,13.08,26.49,4.6
"2010-06-29 00:03:00",242386,6.834,48.15,2.965,0.483,22.07,110.3005,25.67,26.5,20.58,0,111.4,13.08,26.51,10.2
"2010-06-29 00:03:30",242387,6.532,47.25,2.735,0.501,22.12,110.3208,25.72,26.51,20.57,0,111.4,13.08,26.56,9.2
"2010-06-29 00:04:00",242388,6.154,46.67,3.092,0.617,22.09,110.3227,25.72,26.54,20.57,0,111.4,13.08,26.57,8.7
"2010-06-29 00:04:30",242389,6.012,46.35,6.243,0.646,21.85,110.3233,25.73,26.54,20.26,0,111.4,13.08,26.57,8.3
"2010-06-29 00:05:00",242390,5.805,44.8,1.716,0.245,21.65,110.3239,25.73,26.55,19.95,0,111.4,13.08,26.57,6.8
"2010-06-29 00:05:30",242391,4.729,48.37,2.292,0.417,21.7,110.3118,25.7,26.55,19.82,0,111.4,13.08,26.54,10.4
"2010-06-29 00:06:00",242392,4.725,52.34,4.475,0.345,21.78,110.2933,25.65,26.53,19.92,0,111.4,13.08,26.49,14.3
"2010-06-29 00:06:30",242393,6.052,56.21,2.16,0.313,21.86,110.29,25.64,26.51,20.03,0,111.4,13.08,26.48,18.2
"2010-06-29 00:07:00",242394,5.774,53.47,1.197,0.215,21.82,110.2903,25.64,26.51,19.97,0,111.4,13.08,26.48,15.5
"2010-06-29 00:07:30",242395,5.621,57.39,1.404,0.166,21.83,110.2903,25.64,26.5,19.79,0,111.4,13.08,26.48,19.4
"2010-06-29 00:08:00",242396,5.399,57.04,2.691,0.23,21.82,110.2897,25.64,26.5,19.88,0,111.4,13.08,26.48,19.0
"2010-06-29 00:08:30",242397,4.624,57.31,1.826,0.262,21.8,110.2847,25.63,26.51,19.97,0,111.4,13.08,26.47,19.3
"2010-06-29 00:09:00",242398,4.348,59.57,1.825,0.131,21.8,110.2681,25.58,26.48,19.94,0,111.4,13.08,26.42,21.6
"2010-06-29 00:09:30",242399,4.018,54.5,2.766,0.243,21.78,110.265,25.58,26.48,19.98,0,111.4,13.08,26.42,16.5
"2010-06-29 00:10:00",242400,3.923,51.58,1.944,0.162,21.76,110.2622,25.57,26.47,19.96,0,111.4,13.07,26.41,13.6
"2010-06-29 00:10:30",242401,3.945,50.81,1.902,0.186,21.75,110.2566,25.55,26.46,19.88,0,111.4,13.07,26.39,12.8
"2010-06-29 00:11:00",242402,4.2,49.07,1.88,0.306,21.77,110.2566,25.55,26.44,19.93,0,111.4,13.07,26.39,11.1
"2010-06-29 00:11:30",242403,3.647,49.11,2.069,0.219,21.77,110.2566,25.55,26.44,19.89,0,111.4,13.07,26.39,11.1
"2010-06-29 00:12:00",242404,3.664,46.32,1.915,0.431,21.68,110.2569,25.55,26.45,19.9,0,111.4,13.08,26.40,8.3
"2010-06-29 00:12:30",242405,4.686,47.66,1.168,0.162,21.69,110.2566,25.55,26.42,19.68,0,111.4,13.07,26.39,9.7
"2010-06-29 00:13:00",242406,4.566,48.72,1.375,0.206,21.72,110.2572,25.56,26.43,19.66,0,111.4,13.07,26.40,10.7
"2010-06-29 00:13:30",242407,3.91,46.68,3.494,0.421,21.86,110.2579,25.56,26.43,19.97,0,111.4,13.08,26.40,8.7
"2010-06-29 00:14:00",242408,4.083,51.3,5.766,0.199,21.79,110.2569,25.55,26.44,19.96,0,111.4,13.08,26.40,13.3
"2010-06-29 00:14:30",242409,4.306,52.5,1.542,0.329,21.76,110.2572,25.56,26.44,20.03,0,111.4,13.08,26.40,14.5
"2010-06-29 00:15:00",242410,3.873,51.6,3.642,0.278,21.74,110.2558,25.55,26.42,19.99,0,111.4,13.08,26.39,13.6
"2010-06-29 00:15:30",242411,4.391,51.18,3.165,0.53,21.82,110.2559,25.55,26.42,19.95,0,111.4,13.08,26.39,13.2
"2010-06-29 00:16:00",242412,4.77,46.35,3.194,0.322,21.89,110.2566,25.55,26.41,20.2,0,111.4,13.08,26.39,8.3
"2010-06-29 00:16:30",242413,4.924,50.67,4.384,0.333,21.81,110.2575,25.56,26.42,20.06,0,111.4,13.08,26.40,12.7
"2010-06-29 00:17:00",242414,4.631,57.87,3.411,0.275,21.8,110.2576,25.56,26.42,20.08,0,111.4,13.08,26.40,19.9
"2010-06-29 00:17:30",242415,5.039,54.85,4.058,0.418,21.88,110.2582,25.56,26.42,20.11,0,111.4,13.08,26.40,16.8
"2010-06-29 00:18:00",242416,4.372,50.34,2.67,0.581,21.89,110.2581,25.56,26.42,20.05,0,111.4,13.08,26.40,12.3
"2010-06-29 00:18:30",242417,4.022,57.79,3.174,0.176,21.77,110.261,25.57,26.44,19.36,0,111.4,13.08,26.41,19.8
"2010-06-29 00:19:00",242418,3.607,57.67,2.357,0.111,21.77,110.2609,25.56,26.45,19.23,0,111.4,13.08,26.41,19.7
"2010-06-29 00:19:30",242419,3.806,57.89,1.681,0.245,21.73,110.2616,25.57,26.43,19.15,0,111.4,13.08,26.41,19.9
"2010-06-29 00:20:00",242420,3.548,55.87,1.721,0.238,21.75,110.2599,25.56,26.45,19.28,0,111.4,13.08,26.40,17.9
"2010-06-29 00:20:30",242421,3.592,51.58,7.587,0.393,21.87,110.2616,25.57,26.45,20.42,0,111.4,13.08,26.41,13.6
"2010-06-29 00:21:00",242422,4.079,47.64,3.223,0.208,21.75,110.2622,25.57,26.46,20.64,0,111.4,13.08,26.41,9.6
"2010-06-29 00:21:30",242423,3.697,51.34,2.477,0.096,21.74,110.26,25.56,26.43,20.66,0,111.4,13.08,26.40,13.3
"2010-06-29 00:22:00",242424,3.895,54.91,4.21,0.407,21.79,110.2595,25.56,26.43,20.84,0,111.4,13.08,26.40,16.9
"2010-06-29 00:22:30",242425,4.205,59.34,2.62,0.2,21.8,110.2581,25.56,26.42,20.92,0,111.4,13.08,26.40,21.3
"2010-06-29 00:23:00",242426,4.55,58.88,3.306,0.297,21.79,110.2588,25.56,26.41,20.37,0,111.4,13.08,26.40,20.9
"2010-06-29 00:23:30",242427,4.676,58.31,3.014,0.167,21.78,110.2585,25.56,26.41,20.04,0,111.4,13.08,26.40,20.3
"2010-06-29 00:24:00",242428,4.884,63.53,1.885,0.223,21.79,110.2577,25.56,26.4,20.26,0,111.4,13.08,26.40,25.5
"2010-06-29 00:24:30",242429,4.66,58.05,2.922,0.258,21.8,110.2608,25.56,26.42,20.76,0,111.4,13.08,26.41,20.0
"2010-06-29 00:25:00",242430,4.661,57.87,3.767,0.175,21.82,110.261,25.57,26.42,20.83,0,111.4,13.08,26.41,19.9
"2010-06-29 00:25:30",242431,4.481,52.08,6.603,0.142,21.77,110.2587,25.56,26.41,20.96,0,111.4,13.08,26.40,14.1
"2010-06-29 00:26:00",242432,4.357,46.78,2.439,0.184,21.78,110.2594,25.56,26.41,21.02,0,111.4,13.08,26.40,8.8
"2010-06-29 00:26:30",242433,3.979,50.43,2.689,0.171,21.79,110.2514,25.54,26.41,21.09,0,111.4,13.08,26.38,12.4
"2010-06-29 00:27:00",242434,3.241,56.14,3.641,0.224,21.78,110.241,25.51,26.39,21.14,0,111.4,13.08,26.35,18.1
"2010-06-29 00:27:30",242435,3.464,52.24,4.347,0.219,21.79,110.2343,25.5,26.39,21.16,0,111.4,13.08,26.34,14.2
"2010-06-29 00:28:00",242436,3.436,56.72,2.932,0.237,21.78,110.231,25.49,26.37,21.2,0,111.4,13.08,26.33,18.7
"2010-06-29 00:28:30",242437,3.193,60.55,4.482,0.283,21.81,110.2316,25.49,26.37,21.29,0,111.4,13.07,26.33,22.5
"2010-06-29 00:29:00",242438,3.408,66.57,1.639,0.247,21.88,110.2313,25.49,26.38,21.45,0,111.4,13.08,26.33,28.6
"2010-06-29 00:29:30",242439,3.38,55.62,4.795,0.092,21.8,110.2319,25.49,26.36,21.49,0,111.4,13.07,26.33,17.6
"2010-06-29 00:30:00",242440,3.705,50.3,4.032,0.263,21.81,110.2307,25.49,26.38,21.52,0,111.4,13.07,26.33,12.3
"2010-06-29 00:30:30",242441,4.179,43.73,3.053,0.168,21.81,110.2319,25.49,26.36,21.31,0,111.4,13.08,26.33,5.7
"2010-06-29 00:31:00",242442,4.4,44.41,7.973,0.292,21.84,110.231,25.49,26.37,21.34,0,111.4,13.08,26.33,6.4
"2010-06-29 00:31:30",242443,3.958,42.68,5.246,0.216,21.79,110.2304,25.49,26.37,21.5,0,111.4,13.08,26.33,4.7
"2010-06-29 00:32:00",242444,4.216,42.63,2.969,0.317,21.85,110.2319,25.49,26.36,22.04,0,111.4,13.08,26.33,4.6
"2010-06-29 00:32:30",242445,3.881,45.6,1.552,0.255,21.82,110.2316,25.49,26.36,21.89,0,111.4,13.08,26.33,7.6
"2010-06-29 00:33:00",242446,4.027,51.87,7.232,0.355,21.98,110.2319,25.49,26.36,22.05,0,111.4,13.08,26.33,13.9
"2010-06-29 00:33:30",242447,3.594,60.41,1.939,0.235,21.97,110.2367,25.5,26.38,22.07,0,111.4,13.08,26.34,22.4
"2010-06-29 00:34:00",242448,3.732,72.86,3.291,0.376,21.99,110.2418,25.52,26.38,21.79,0,111.4,13.08,26.36,34.9
"2010-06-29 00:34:30",242449,3.664,63.68,5.52,0.28,21.81,110.244,25.52,26.38,21.38,0,111.4,13.08,26.36,25.7
"2010-06-29 00:35:00",242450,3.586,70.37,6.356,0.261,21.83,110.2378,25.51,26.37,21.42,0,111.4,13.08,26.35,32.4
"2010-06-29 00:35:30",242451,3.994,76.87,8.47,0.308,21.85,110.2351,25.5,26.36,21.46,0,111.4,13.08,26.34,38.9
"2010-06-29 00:36:00",242452,3.807,56.47,2.954,0.372,21.8,110.2353,25.5,26.37,21.57,0,111.4,13.08,26.34,18.5
"2010-06-29 00:36:30",242453,3.71,61.6,3.128,0.355,21.83,110.2339,25.5,26.37,21.09,0,111.4,13.08,26.34,23.6
"2010-06-29 00:37:00",242454,4.137,57.95,3.318,0.197,21.87,110.2375,25.5,26.37,21.28,0,111.4,13.08,26.35,20.0
"2010-06-29 00:37:30",242455,4.522,59.69,3.719,0.213,21.86,110.2339,25.5,26.38,22.26,0,111.4,13.08,26.34,21.7
"2010-06-29 00:38:00",242456,3.821,72.57,1.627,0.252,21.86,110.2331,25.49,26.37,20.99,0,111.4,13.08,26.33,34.6
"2010-06-29 00:38:30",242457,3.536,67.75,4.33,0.146,21.93,110.2373,25.5,26.37,21.91,0,111.4,13.08,26.35,29.8
"2010-06-29 00:39:00",242458,3.77,63.52,3.234,0.431,21.83,110.2345,25.5,26.37,21.97,0,111.4,13.08,26.34,25.5
"2010-06-29 00:39:30",242459,3.72,66.8,7.213,0.351,21.86,110.2322,25.49,26.38,21,0,111.4,13.08,26.33,28.8
"2010-06-29 00:40:00",242460,3.818,60.57,5.625,0.243,21.85,110.2365,25.5,26.38,21.63,0,111.4,13.08,26.34,22.6
"2010-06-29 00:40:30",242461,4.375,51.74,2.468,0.274,21.85,110.2348,25.5,26.37,22.16,0,111.4,13.08,26.34,13.7
"2010-06-29 00:41:00",242462,4.523,53.16,4.987,0.248,21.93,110.2336,25.49,26.38,22.45,0,111.4,13.08,26.34,15.2
"2010-06-29 00:41:30",242463,4.305,52.34,5.274,0.362,21.91,110.2322,25.49,26.37,22.35,0,111.4,13.08,26.33,14.3
"2010-06-29 00:42:00",242464,4.638,52.57,2.466,0.345,21.89,110.2331,25.49,26.38,21.56,0,111.4,13.08,26.33,14.6
"2010-06-29 00:42:30",242465,4.264,57.3,2.692,0.359,21.88,110.2348,25.5,26.38,21.56,0,111.4,13.08,26.34,19.3
"2010-06-29 00:43:00",242466,4.236,59.16,2.582,0.159,21.87,110.2395,25.51,26.4,21.76,0,111.4,13.08,26.35,21.2
"2010-06-29 00:43:30",242467,3.795,59.02,1.762,0.186,21.89,110.2395,25.51,26.39,21.69,0,111.4,13.08,26.35,21.0
"2010-06-29 00:44:00",242468,3.77,57.46,1.905,0.181,21.91,110.2351,25.5,26.38,21.44,0,111.4,13.08,26.34,19.5
"2010-06-29 00:44:30",242469,3.871,63.12,3.753,0.087,21.92,110.2322,25.49,26.37,21.34,0,111.4,13.08,26.33,25.1
"2010-06-29 00:45:00",242470,4.253,65.52,3.479,0.288,21.92,110.2325,25.49,26.38,21.42,0,111.3,13.08,26.33,27.5
"2010-06-29 00:45:30",242471,3.897,62.21,2.609,0.222,21.9,110.2322,25.49,26.39,21.48,0,111.4,13.08,26.33,24.2
"2010-06-29 00:46:00",242472,4.045,57.52,3.798,0.395,21.92,110.2322,25.49,26.38,21.46,0,111.3,13.08,26.33,19.5
"2010-06-29 00:46:30",242473,4.297,54.55,0.979,0.205,21.93,110.2328,25.49,26.39,21.6,0,111.3,13.08,26.33,16.5
"2010-06-29 00:47:00",242474,4.461,56.07,2.194,0.252,21.98,110.2322,25.49,26.39,21.58,0,111.4,13.08,26.33,18.1
"2010-06-29 00:47:30",242475,4.6,58.34,1.637,0.175,21.99,110.2322,25.49,26.39,21.74,0,111.4,13.08,26.33,20.3
"2010-06-29 00:48:00",242476,4.708,61.33,1.795,0.162,22.03,110.2322,25.49,26.37,21.95,0,111.4,13.08,26.33,23.3
"2010-06-29 00:48:30",242477,4.919,55.56,1.993,0.199,21.99,110.2336,25.49,26.38,21.71,0,111.3,13.08,26.34,17.6
"2010-06-29 00:49:00",242478,4.739,63.23,5.283,0.148,22.03,110.2342,25.5,26.4,21.75,0,111.3,13.08,26.34,25.2
"2010-06-29 00:49:30",242479,5.188,57.91,3.219,0.225,22.02,110.2376,25.51,26.4,21.63,0,111.3,13.08,26.35,19.9
"2010-06-29 00:50:00",242480,4.778,52.03,3.462,0.103,21.98,110.2351,25.5,26.4,21.71,0,111.3,13.08,26.34,14.0
"2010-06-29 00:50:30",242481,4.577,52.53,2.806,0.117,22.03,110.2342,25.5,26.41,21.64,0,111.3,13.08,26.34,14.5
"2010-06-29 00:51:00",242482,4.584,53.62,2.138,0.29,22.03,110.2322,25.49,26.39,21.64,0,111.3,13.08,26.33,15.6
"2010-06-29 00:51:30",242483,5.182,57.8,3.014,0.356,22.04,110.2328,25.49,26.41,21.8,0,111.3,13.08,26.33,19.8
"2010-06-29 00:52:00",242484,4.878,58.88,3.454,0.32,22.05,110.2325,25.49,26.39,21.91,0,111.3,13.08,26.33,20.9
"2010-06-29 00:52:30",242485,4.665,55.14,2.039,0.326,22.01,110.2322,25.49,26.4,22.12,0,111.3,13.08,26.33,17.1
"2010-06-29 00:53:00",242486,5.075,53.15,3.128,0.2,22.03,110.2322,25.49,26.4,22.74,0,111.3,13.08,26.33,15.2
"2010-06-29 00:53:30",242487,5.308,53.47,1.785,0.202,22.06,110.2322,25.49,26.39,22.63,0,111.3,13.08,26.33,15.5
"2010-06-29 00:54:00",242488,5.21,52.73,2.746,0.311,22.06,110.2322,25.49,26.39,22.58,0,111.3,13.08,26.33,14.7
"2010-06-29 00:54:30",242489,4.939,57.32,2.398,0.185,22.04,110.2314,25.49,26.38,22.41,0,111.3,13.08,26.33,19.3
"2010-06-29 00:55:00",242490,5.018,56.48,1.736,0.201,22,110.2207,25.46,26.36,22.41,0,111.3,13.08,26.30,18.5
"2010-06-29 00:55:30",242491,5.141,54.72,2.087,0.189,22.04,110.2081,25.43,26.36,22.46,0,111.3,13.09,26.27,16.7
"2010-06-29 00:56:00",242492,5.14,54.37,1.401,0.208,22.03,110.2073,25.43,26.37,22.3,0,111.3,13.08,26.27,16.4
"2010-06-29 00:56:30",242493,4.855,60.83,2.621,0.319,22.04,110.207,25.43,26.37,22.25,0,111.3,13.08,26.27,22.8
"2010-06-29 00:57:00",242494,4.634,56.24,4.11,0.405,22.02,110.2078,25.43,26.35,22.26,0,111.3,13.09,26.27,18.2
"2010-06-29 00:57:30",242495,4.727,65.58,2.82,0.21,22.02,110.207,25.43,26.35,22.19,0,111.3,13.09,26.27,27.6
"2010-06-29 00:58:00",242496,5.219,66.25,3.647,0.279,22.06,110.2082,25.43,26.36,22.2,0,111.3,13.09,26.27,28.2
"2010-06-29 00:58:30",242497,4.534,64.05,3.999,0.254,22.05,110.2095,25.43,26.37,22.27,0,111.3,13.09,26.27,26.1
"2010-06-29 00:59:00",242498,4.729,63.76,1.351,0.2,22.08,110.2096,25.43,26.34,22.22,0,111.3,13.09,26.27,25.8
"2010-06-29 00:59:30",242499,5.086,63.76,1.31,0.254,22.09,110.2071,25.43,26.35,22.15,0,111.3,13.09,26.27,25.8
"2010-06-29 01:00:00",242500,5.365,68.41,3.975,0.139,22.11,110.2054,25.42,26.34,22.05,0,111.3,13.08,26.26,30.4
"2010-06-29 01:00:30",242501,5.709,64.48,2.541,0.17,22.12,110.2059,25.42,26.34,22.02,0,111.3,13.08,26.26,26.5
"2010-06-29 01:01:00",242502,5.782,64.33,2.819,0.137,22.11,110.2128,25.44,26.33,22.05,0,111.3,13.08,26.28,26.3
"2010-06-29 01:01:30",242503,6.157,65.92,2.397,0.431,22.13,110.214,25.44,26.35,22.09,0,111.3,13.08,26.29,27.9
"2010-06-29 01:02:00",242504,6.01,70.34,1.371,0.181,22.1,110.2159,25.45,26.33,21.82,0,111.3,13.08,26.29,32.3
"2010-06-29 01:02:30",242505,6.028,71.29,1.64,0.172,22.13,110.2181,25.45,26.33,21.88,0,111.3,13.08,26.30,33.3
"2010-06-29 01:03:00",242506,5.936,70.39,2.707,0.23,22.11,110.2196,25.46,26.32,21.88,0,111.3,13.08,26.30,32.4
"2010-06-29 01:03:30",242507,5.957,66.62,2.677,0.151,22.05,110.2224,25.47,26.33,21.8,0,111.3,13.08,26.31,28.6
"2010-06-29 01:04:00",242508,5.228,64.93,2.54,0.189,22.05,110.2221,25.47,26.34,21.81,0,111.3,13.08,26.31,26.9
"2010-06-29 01:04:30",242509,5.644,66.39,3.367,0.416,22.17,110.2246,25.47,26.34,21.88,0,111.3,13.08,26.31,28.4
"2010-06-29 01:05:00",242510,5.265,62.54,4.981,0.497,22.13,110.2249,25.47,26.32,22.05,0,111.3,13.08,26.31,24.5
"2010-06-29 01:05:30",242511,5.432,63.96,4.099,0.207,22.16,110.221,25.46,26.32,22.13,0,111.3,13.08,26.30,26.0
"2010-06-29 01:06:00",242512,5.059,65.22,3.052,0.271,22.19,110.2213,25.46,26.33,22.17,0,111.3,13.09,26.30,27.2
"2010-06-29 01:06:30",242513,5.836,69.08,2.305,0.545,22.17,110.2222,25.47,26.32,22.12,0,111.3,13.09,26.31,31.1
"2010-06-29 01:07:00",242514,6.63,70.19,3.197,0.442,22.19,110.225,25.47,26.32,22.11,0,111.3,13.09,26.31,32.2
"2010-06-29 01:07:30",242515,5.584,60.19,2.592,0.252,22.18,110.2242,25.47,26.32,22.15,0,111.3,13.09,26.31,22.2
"2010-06-29 01:08:00",242516,5.584,65.77,4.872,0.546,22.24,110.2264,25.48,26.32,22.24,0,111.3,13.09,26.32,27.8
"2010-06-29 01:08:30",242517,5.26,76.77,8.14,0.557,22.17,110.225,25.47,26.33,22.39,0,111.3,13.09,26.31,38.8
"2010-06-29 01:09:00",242518,5.383,72.38,4.452,0.234,22.11,110.218,25.45,26.32,22.18,0,111.3,13.09,26.30,34.4
"2010-06-29 01:09:30",242519,5.443,88.2,5.3,0.438,22.15,110.2062,25.42,26.31,22.31,0,111.3,13.09,26.27,50.2
"2010-06-29 01:10:00",242520,5.091,81.1,3.757,0.144,22.11,110.2024,25.41,26.31,21.8,0,111.3,13.09,26.26,43.1
"2010-06-29 01:10:30",242521,5.332,84.4,1.299,0.319,22.07,110.2004,25.41,26.3,21.66,0,111.3,13.09,26.25,46.4
"2010-06-29 01:11:00",242522,5.795,82.6,2.24,0.214,22.07,110.1972,25.4,26.29,21.91,0,111.3,13.09,26.24,44.6
"2010-06-29 01:11:30",242523,4.822,89.1,5.568,0.526,22.08,110.1961,25.4,26.28,22.28,0,111.3,13.09,26.24,51.1
"2010-06-29 01:12:00",242524,4.234,89.3,2.787,0.309,22,110.1952,25.4,26.29,22.18,0,111.3,13.09,26.24,51.3
"2010-06-29 01:12:30",242525,4.918,86.9,3.267,0.232,21.94,110.1981,25.4,26.28,22.25,0,111.3,13.09,26.24,48.9
"2010-06-29 01:13:00",242526,5.328,93.6,3.797,0.278,21.97,110.1946,25.39,26.27,22.22,0,111.3,13.09,26.24,55.6
"2010-06-29 01:13:30",242527,5.25,96.4,1.993,0.239,21.98,110.1895,25.38,26.25,21.84,0,111.3,13.09,26.22,58.4
"2010-06-29 01:14:00",242528,5.086,97.8,1.515,0.095,22,110.1765,25.35,26.25,21.51,0,111.3,13.09,26.19,59.8
"2010-06-29 01:14:30",242529,4.97,96,0.714,0.134,22.01,110.176,25.35,26.25,21.33,0,111.3,13.09,26.19,58.0
"2010-06-29 01:15:00",242530,5.234,94.2,0.874,0.107,22,110.1761,25.35,26.24,21.4,0,111.3,13.09,26.19,56.2
"2010-06-29 01:15:30",242531,5.173,95.6,1.372,0.112,21.99,110.1761,25.35,26.22,21.23,0,111.3,13.09,26.19,57.6
"2010-06-29 01:16:00",242532,5.388,95.4,1.033,0.079,22.04,110.1764,25.35,26.24,20.95,0,111.3,13.09,26.19,57.4
"2010-06-29 01:16:30",242533,5.287,95.4,1.115,0.072,22.01,110.1768,25.35,26.22,20.91,0,111.3,13.09,26.19,57.4
"2010-06-29 01:17:00",242534,5.703,94,1.69,0.147,22.1,110.1765,25.35,26.22,20.98,0,111.3,13.09,26.19,56.0
"2010-06-29 01:17:30",242535,5.455,96.9,1.557,0.138,22.06,110.1773,25.35,26.22,21.09,0,111.3,13.09,26.19,58.9
"2010-06-29 01:18:00",242536,5.464,95.9,1.432,0.261,22.08,110.1768,25.35,26.22,21.2,0,111.3,13.09,26.19,57.9
"2010-06-29 01:18:30",242537,5.685,94.2,1.927,0.238,22.08,110.1768,25.35,26.22,21.38,0,111.3,13.08,26.19,56.2
"2010-06-29 01:19:00",242538,5.681,95.1,1.549,0.17,22.09,110.1751,25.34,26.22,21.45,0,111.3,13.08,26.18,57.1
"2010-06-29 01:19:30",242539,5.858,92.5,2.24,0.213,22.04,110.1695,25.33,26.23,21.43,0,111.3,13.09,26.17,54.5
"2010-06-29 01:20:00",242540,6.131,97.8,1.727,0.129,22.04,110.1683,25.33,26.21,21.5,0,111.3,13.08,26.17,59.8
"2010-06-29 01:20:30",242541,6.169,98.3,1.964,0.153,22.09,110.1683,25.33,26.2,21.75,0,111.3,13.08,26.17,60.3
"2010-06-29 01:21:00",242542,6.285,98.8,2.064,0.459,22.05,110.1683,25.33,26.21,21.67,0,111.3,13.08,26.17,60.8
"2010-06-29 01:21:30",242543,6.567,101.7,0.926,0.095,22.06,110.1675,25.32,26.19,21.51,0,111.3,13.09,26.17,63.7
"2010-06-29 01:22:00",242544,6.802,98.1,3.723,0.151,22.11,110.1667,25.32,26.19,21.6,0,111.3,13.09,26.16,60.1
"2010-06-29 01:22:30",242545,6.604,91.2,1.793,0.142,22.11,110.1582,25.3,26.19,21.87,0,111.3,13.09,26.14,53.2
"2010-06-29 01:23:00",242546,6.253,95.8,2.38,0.286,22.14,110.1493,25.28,26.19,21.91,0,111.3,13.09,26.12,57.8
"2010-06-29 01:23:30",242547,6.43,98.8,1.83,0.099,22.12,110.1431,25.26,26.18,21.59,0,111.3,13.09,26.10,60.8
"2010-06-29 01:24:00",242548,6.587,98.3,1.75,0.115,22.15,110.1409,25.26,26.17,21.62,0,111.3,13.09,26.10,60.3
"2010-06-29 01:24:30",242549,6.678,98.8,1.447,0.105,22.11,110.1364,25.24,26.16,21.84,0,111.3,13.09,26.09,60.8
"2010-06-29 01:25:00",242550,6.62,100.1,1.067,0.156,22.13,110.1347,25.24,26.14,21.93,0,111.3,13.09,26.08,62.1
"2010-06-29 01:25:30",242551,6.431,100.5,2.321,0.112,22.14,110.1344,25.24,26.14,21.92,0,111.3,13.09,26.08,62.5
"2010-06-29 01:26:00",242552,6.347,102.5,2.812,0.188,22.12,110.1319,25.23,26.12,21.89,0,111.3,13.09,26.07,64.5
"2010-06-29 01:26:30",242553,6.086,102.9,1.688,0.117,22.08,110.1192,25.2,26.12,22.17,0,111.3,13.09,26.04,64.9
"2010-06-29 01:27:00",242554,6.346,103,1.403,0.16,22.08,110.1091,25.17,26.11,22.35,0,111.3,13.1,26.01,65.0
"2010-06-29 01:27:30",242555,6.62,101.3,0.781,0.157,22.1,110.1016,25.16,26.08,22.28,0,111.3,13.1,26.00,63.3
"2010-06-29 01:28:00",242556,6.679,103.2,1.729,0.104,22.08,110.1013,25.15,26.08,22.14,0,111.3,13.1,25.99,65.2
"2010-06-29 01:28:30",242557,6.682,100.9,1.258,0.095,22.13,110.0993,25.15,26.06,22.18,0,111.3,13.1,25.99,62.9
"2010-06-29 01:29:00",242558,6.668,100.7,0.64,0.076,22.11,110.0888,25.12,26.06,22.09,0,111.3,13.1,25.96,62.7
"2010-06-29 01:29:30",242559,6.934,100.3,0.802,0.145,22.14,110.0862,25.12,26.05,21.82,0,111.3,13.1,25.96,62.3
"2010-06-29 01:30:00",242560,6.943,101.5,2.516,0.248,22.14,110.0825,25.11,26.05,22.15,0,111.3,13.1,25.95,63.5
"2010-06-29 01:30:30",242561,6.554,104.4,2.665,0.13,22.09,110.085,25.11,26.04,22.43,0,111.2,13.1,25.95,66.4
"2010-06-29 01:31:00",242562,6.401,105.4,0.847,0.136,22.09,110.0813,25.1,26.02,22.91,0,111.2,13.1,25.94,67.4
"2010-06-29 01:31:30",242563,6.272,102.6,1.069,0.17,22.14,110.0797,25.1,26.01,22.24,0,111.2,13.1,25.94,64.6
"2010-06-29 01:32:00",242564,6.051,100,0.761,0.085,22.22,110.0815,25.1,26,21.86,0,111.3,13.1,25.94,62.0
"2010-06-29 01:32:30",242565,6.108,99.6,1.365,0.131,22.26,110.0845,25.11,26,21.78,0,111.3,13.1,25.95,61.6
"2010-06-29 01:33:00",242566,6.132,98.4,1.079,0.117,22.28,110.0857,25.11,25.98,21.84,0,111.2,13.1,25.95,60.4
"2010-06-29 01:33:30",242567,5.84,98.2,1.623,0.089,22.27,110.0839,25.11,25.96,21.78,0,111.2,13.1,25.95,60.2
"2010-06-29 01:34:00",242568,5.927,100.7,0.859,0.075,22.24,110.0831,25.11,25.97,21.88,0,111.2,13.1,25.95,62.7
"2010-06-29 01:34:30",242569,5.844,100.9,0.881,0.069,22.2,110.0846,25.11,25.97,21.79,0,111.2,13.09,25.95,62.9
"2010-06-29 01:35:00",242570,5.915,101.4,1.158,0.137,22.19,110.084,25.11,25.97,21.76,0,111.2,13.09,25.95,63.4
"2010-06-29 01:35:30",242571,6.061,100,0.876,0.099,22.23,110.0816,25.1,25.97,21.72,0,111.2,13.09,25.94,62.0
"2010-06-29 01:36:00",242572,6.492,101.4,0.82,0.214,22.17,110.0802,25.1,25.96,21.66,0,111.2,13.09,25.94,63.4
"2010-06-29 01:36:30",242573,6.831,100.8,0.895,0.1,22.26,110.0758,25.09,25.96,21.44,0,111.2,13.09,25.93,62.8
"2010-06-29 01:37:00",242574,6.807,100.5,1.061,0.142,22.28,110.0699,25.07,25.95,21.47,0,111.2,13.09,25.91,62.5
"2010-06-29 01:37:30",242575,7.102,102.9,1.116,0.1,22.33,110.0671,25.07,25.94,22,0,111.2,13.09,25.91,64.9
"2010-06-29 01:38:00",242576,6.92,105.8,1.303,0.087,22.41,110.062,25.05,25.95,22.06,0,111.2,13.1,25.89,67.8
"2010-06-29 01:38:30",242577,7.117,105.5,0.692,0.157,22.41,110.063,25.06,25.93,22.14,0,111.2,13.09,25.90,67.5
"2010-06-29 01:39:00",242578,6.985,106.3,0.735,0.113,22.43,110.0643,25.06,25.93,21.98,0,111.2,13.09,25.90,68.3
"2010-06-29 01:39:30",242579,6.691,106.1,0.71,0.057,22.42,110.062,25.05,25.92,21.76,0,111.2,13.1,25.89,68.1
"2010-06-29 01:40:00",242580,6.506,105.4,1.107,0.07,22.37,110.0469,25.02,25.91,22.13,0,111.2,13.1,25.85,67.4
"2010-06-29 01:40:30",242581,6.516,104.4,1.031,0.103,22.41,110.0404,25,25.89,21.52,0,111.2,13.1,25.84,66.4
"2010-06-29 01:41:00",242582,6.18,104.8,1.482,0.188,22.39,110.0364,24.99,25.88,22.2,0,111.2,13.1,25.83,66.8
"2010-06-29 01:41:30",242583,6.328,102.9,1.245,0.192,22.4,110.0365,24.99,25.87,22.63,0,111.2,13.1,25.83,64.9
"2010-06-29 01:42:00",242584,5.98,104.5,1.837,0.196,22.41,110.0216,24.95,25.85,22.98,0,111.2,13.1,25.79,66.5
"2010-06-29 01:42:30",242585,6.004,103.9,2.642,0.079,22.42,110.0067,24.91,25.83,22.95,0,111.2,13.1,25.75,65.9
"2010-06-29 01:43:00",242586,6.047,107.3,1.488,0.13,22.41,110.0034,24.9,25.81,22.98,0,111.2,13.1,25.74,69.3
"2010-06-29 01:43:30",242587,6.282,101.6,1.756,0.105,22.49,110.0034,24.9,25.81,21.77,0,111.2,13.1,25.74,63.6
"2010-06-29 01:44:00",242588,6.497,99.9,0.396,0.107,22.51,110.0011,24.9,25.79,21.42,0,111.2,13.1,25.74,61.9
"2010-06-29 01:44:30",242589,6.634,100.4,0.377,0.128,22.5,109.9994,24.89,25.78,21.42,0,111.2,13.11,25.73,62.4
"2010-06-29 01:45:00",242590,6.517,100.8,0.52,0.069,22.5,109.9989,24.89,25.78,21.31,0,111.2,13.11,25.73,62.8
"2010-06-29 01:45:30",242591,6.577,100.9,0.527,0.07,22.51,109.9975,24.89,25.77,21.29,0,111.2,13.11,25.73,62.9
"2010-06-29 01:46:00",242592,6.427,101.9,1.319,0.142,22.49,109.9975,24.89,25.76,21.41,0,111.2,13.11,25.73,63.9
"2010-06-29 01:46:30",242593,6.53,100.9,0.602,0.087,22.5,109.9928,24.88,25.76,21.41,0,111.2,13.11,25.71,62.9
"2010-06-29 01:47:00",242594,6.485,101,0.712,0.068,22.51,109.9905,24.87,25.76,21.33,0,111.2,13.11,25.71,63.0
"2010-06-29 01:47:30",242595,6.614,102.3,0.956,0.087,22.5,109.9887,24.87,25.76,21.37,0,111.2,13.11,25.70,64.3
"2010-06-29 01:48:00",242596,6.441,102.8,1.071,0.064,22.5,109.9876,24.86,25.76,21.55,0,111.2,13.11,25.70,64.8
"2010-06-29 01:48:30",242597,6.481,101.8,1.047,0.077,22.51,109.9889,24.87,25.77,21.49,0,111.2,13.11,25.70,63.8
"2010-06-29 01:49:00",242598,6.532,102.6,0.695,0.048,22.48,109.9907,24.87,25.76,21.6,0,111.2,13.11,25.71,64.6